カタログに戻る

SL-12 R/B(2)

運用中GEO
NORAD 21129·ROCKET BODY·🇷🇺 Russia

打ち上げ Feb 14, 1991 から Baikonur Cosmodrome

Loading…

TLE

最新Source: Space-Track

元期: Sep 14, 2026, 14:24 UTC

1 21129U 91010F   26257.60058112 -.00000371  00000-0  00000-0 0  9993
2 21129  13.0927 341.7314 0018564 235.3889 120.9593  1.00132725130569

AllMySatでSL-12 R/B(2)をリアルタイム追跡

Download on the App Store